Welcome to the New NWS' Forecast!
Most changes are behind the scenes, but click here for differences you might notice.
Latest weather observations around

Merkel Field Sylacauga Municipal Airport (KSCD)

Using English Units (Switch to International System of Units)
Date/ Time (CDT) Wind (mph) Vis. (mi) Weather Sky Cond. Temp (°F) Rel. Humidity Wind Chill (°F) Heat Index (°F) Pressure Precip. (in)
Air Dwpt 6 hour Altimeter (inHg) Sea level (inHg) 1 hr 3 hr 6 hr
Max Min
Oct 21 14:15 NE 6 10 Clear CLR 60 34     38%     30.24        
Oct 21 13:55 NNE 7 10 Clear CLR 59 33     37%     30.25        
Oct 21 13:35 NE 8 10 Clear CLR 59 33     37%     30.26        
Oct 21 13:15 N 6 10 Clear CLR 58 33     39%     30.27        
Oct 21 12:55 NE 8 10 Clear CLR 58 34     40%     30.28        
Oct 21 12:35 NNE 8 10 Clear CLR 56 32     40%     30.29        
Oct 21 12:15 NE 7 10 Clear CLR 56 32     41%     30.3        
Oct 21 11:55 N 8 10 Clear CLR 56 32     41%     30.3        
Oct 21 11:35 NNE 7 10 Clear CLR 54 32     42%     30.31        
Oct 21 11:15 NNE 7 10 Clear CLR 53 32     44%     30.31        
Oct 21 10:55 ENE 13 10 Clear CLR 52 31     45%     30.31        
Oct 21 10:35 NNE 9 10 Clear CLR 51 31     47%     30.31        
Oct 21 10:15 NE 10 10 Clear CLR 50 32     49%     30.31        
Oct 21 09:55 NE 10 10 Clear CLR 49 32     51% 45   30.31        
Oct 21 09:35 NE 8 10 Clear CLR 48 32     54% 45   30.3        
Oct 21 09:15 ENE 10 10 Clear CLR 48 33     56% 43   30.3        
Oct 21 08:55 NE 11 10 Clear CLR 47 32     56% 42   30.29        
Oct 21 08:35 NE 9 10 Clear CLR 47 33     58% 42   30.28        
Oct 21 08:15 NNE 8 10 Clear CLR 46 33     60% 42   30.28        
Oct 21 07:55 NNE 5 10 Clear CLR 45 33     61% 43   30.27        
Oct 21 07:35 NNE 3 10 Clear CLR 45 33     62% 43   30.25        
Oct 21 07:15 Calm 10 Clear CLR 45 32     60%     30.24        
Oct 21 06:55 NNE 7 10 Clear CLR 46 32     59% 42   30.23        
Oct 21 06:35 N 3 10 Clear CLR 46 35     63% 45   30.23        
Oct 21 06:15 Calm 10 Clear CLR 47 37     66%     30.22        
Oct 21 05:55 NNE 7 10 Clear CLR 48 38     69% 45   30.2        
Oct 21 05:35 N 6 10 Clear CLR 49 38     67% 46   30.2        
Oct 21 05:15 NNE 3 10 Clear CLR 49 40     71% 49   30.19        
Oct 21 04:55 N 3 10 Clear CLR 50 43     76%     30.18        
Oct 21 04:35 N 3 10 Clear CLR 51 43     76%     30.18        
Oct 21 04:15 N 5 10 Clear CLR 51 44     75%     30.17        
Oct 21 03:55 NNW 6 10 Clear CLR 52 45     75%     30.16        
Oct 21 03:35 N 3 10 Clear CLR 53 46     77%     30.16        
Oct 21 03:15 Calm 10 Clear CLR 53 47     79%     30.15        
Oct 21 02:55 N 5 10 Clear CLR 54 48     80%     30.15        
Oct 21 02:35 NNW 5 10 Partly Cloudy SCT120 54 50     86%     30.15        
Oct 21 02:15 NNW 6 10 Partly Cloudy SCT120 54 51     88%     30.15        
Oct 21 01:55 NNW 3 10 Partly Cloudy SCT110 54 52     95%     30.15        
Oct 21 01:35 Calm 10 Clear CLR 54 52     91%     30.14        
Oct 21 01:15 Calm 10 Clear CLR 55 52     89%     30.14        
Oct 21 00:55 Calm 10 Clear CLR 55 53     91%     30.14        
Oct 21 00:35 Calm 10 Partly Cloudy SCT120 55 54     96%     30.15        
Oct 21 00:15 NW 3 10 Clear CLR 56 54     95%     30.15        
Oct 20 23:55 NNW 3 10 Clear CLR 56 54     94%     30.15        
Oct 20 23:35 NW 3 10 Clear CLR 56 55     96%     30.15        
Oct 20 23:15 Calm 10 Clear CLR 56 56     97%     30.16        
Oct 20 22:55 Calm 10 Clear CLR 57 56     94%     30.16        
Oct 20 22:35 Calm 10 Clear CLR 57 56     96%     30.16        
Oct 20 22:15 NNW 3 10 Clear CLR 58 57     96%     30.15        
Oct 20 21:55 NNW 3 10 Clear CLR 58 57     97%     30.15        
Oct 20 21:35 NNW 3 10 Clear CLR 57 57     100%     30.14        
Oct 20 21:15 Calm 10 Clear CLR 55 55     100%     30.13        
Oct 20 20:55 Calm 10 Clear CLR 54 54     100%     30.13        
Oct 20 20:35 W 5 10 Clear CLR 54 54     100%     30.12        
Oct 20 20:15 W 3 10 Clear CLR 54 54     100%     30.12        
Oct 20 19:55 WNW 3 10 Clear CLR 56 56     100%     30.11        
Oct 20 19:35 WSW 3 10 Clear CLR 56 56     100%     30.1        
Oct 20 19:15 Calm 10 Clear CLR 57 57     100%     30.09        
Oct 20 18:55 W 3 10 Clear CLR 59 58     99%     30.09       0
Oct 20 18:35 WNW 3 10 Clear CLR 61 60     95%     30.08        
Oct 20 18:15 NW 5 10 Partly Cloudy SCT021 62 60     94%     30.07        
Oct 20 17:55 WNW 5 10 Mostly Cloudy BKN023 63 60     93%     30.07        
Oct 20 17:35 NW 6 10 Mostly Cloudy BKN023 BKN028 64 61     90%     30.06        
Oct 20 17:15 NNW 6 10 Mostly Cloudy SCT019 BKN027 65 61     88%     30.05        
Oct 20 16:55 NW 7 10 Cloudy BKN019 OVC027 65 62     89%     30.05        
Oct 20 16:35 WNW 7 10 Cloudy BKN019 OVC027 66 63     91%     30.04        
Oct 20 16:15 NW 6 10 Cloudy SCT018 OVC027 66 63     90%     30.04        
Oct 20 15:55 NNW 5 10 Cloudy BKN018 OVC025 66 63     91%     30.04     0  
Oct 20 15:35 NW 6 10 Cloudy OVC024 66 63     89%     30.04        
Oct 20 15:15 NNW 6 10 Cloudy OVC019 66 63     93%     30.04        
Oct 20 14:55 NNW 8 10 Cloudy OVC017 66 63     90%     30.04        
Oct 20 14:35 NNW 5 10 Cloudy BKN017 BKN022 OVC029 67 65     93%     30.03        
Oct 20 14:15 NNW 5 10 Cloudy BKN015 OVC027 67 65     96%     30.03        
Oct 20 13:55 NW 5 10 Cloudy BKN018 BKN035 OVC075 67 66     99%     30.04   0    
Oct 20 13:35 NNW 5 5 Light Rain SCT020 BKN037 OVC048 66 66     98%     30.05   0    
Oct 20 13:15 Calm 10 Cloudy SCT014 BKN037 OVC046 67 63     88%     30.05        
Oct 20 12:55 Calm 10 Cloudy SCT013 BKN039 OVC045 67 65     96%     30.07       0
Oct 20 12:35 Calm 10 Cloudy SCT016 BKN033 OVC040 67 66     98%     30.08        
Oct 20 12:15 Calm 10 Cloudy SCT012 BKN018 OVC029 65 65     100%     30.1        
Oct 20 11:55 Calm 10 Cloudy SCT012 OVC027 65 65     100%     30.09        
Oct 20 11:35 Calm 10 Cloudy SCT008 SCT012 OVC025 65 65     100%     30.1        
Oct 20 11:15 Calm 7 Rain SCT008 BKN020 OVC025 65 65     100%     30.1        
Oct 20 10:55 Calm 10 Cloudy BKN022 OVC029 64 64     100%     30.1   0    
Oct 20 10:35 Calm 5 Light Rain SCT015 SCT020 OVC029 64 64     100%     30.1   0    
Oct 20 10:15 NW 3 7 Rain OVC027 66 65     98%     30.1        
Oct 20 09:55 Calm 10 Light Rain OVC027 67 64     92%     30.09        
Oct 20 09:35 N 5 10 Cloudy SCT010 SCT015 OVC027 67 64     89%     30.1        
Oct 20 09:15 N 5 10 Cloudy BKN010 OVC025 69 69     100%     30.08        
Oct 20 08:55 NW 5 10 Cloudy SCT010 OVC023 70 70     100%     30.07        
Oct 20 08:35 W 7 10 Cloudy SCT010 OVC019 70 70     100%     30.06        
Oct 20 08:15 WNW 7 7 Cloudy BKN006 BKN012 OVC017 69 69     100%     30.05        
Oct 20 07:55 NW 6 3 Fog/Mist OVC004 70 70     100%     30.05        
Oct 20 07:35 NW 8 4 Fog/Mist OVC004 70 70     100%     30.04        
Oct 20 07:15 WSW 6 3 Fog/Mist OVC004 70 70     100%   72 30.03        
Oct 20 06:55 WSW 6 5 Fog/Mist OVC004 70 70     100%     30.03        
Oct 20 06:35 WSW 7 5 Fog/Mist OVC004 70 70     100%     30.03        
Oct 20 06:15 W 5 7 Cloudy OVC006 69 69     100%     30.03        
Oct 20 05:55 WNW 3 10 Cloudy OVC006 68 68     100%     30.03        
Oct 20 05:35 WNW 3 10 Cloudy BKN010 OVC014 67 67     100%     30.04        
Oct 20 05:15 Calm 10 Mostly Cloudy BKN013 BKN060 BKN120 65 65     100%     30.04        
Oct 20 04:55 Calm 7 Partly Cloudy SCT050 SCT120 64 64     100%     30.04        
Oct 20 04:35 Calm 10 Partly Cloudy SCT038 SCT060 SCT065 65 65     100%     30.04        
Oct 20 04:15 Calm 10 Mostly Cloudy BKN038 BKN060 BKN110 64 64     100%     30.04        
Oct 20 03:55 Calm 10 Partly Cloudy SCT095 64 64     100%     30.05        
Oct 20 03:35 Calm 10 Clear CLR 63 63     100%     30.05        
Oct 20 03:15 Calm 10 Partly Cloudy SCT041 63 63     100%     30.05        
Oct 20 02:55 Calm 10 Partly Cloudy SCT041 63 63     100%     30.07        
Oct 20 02:35 Calm 10 Partly Cloudy SCT030 SCT034 64 64     100%     30.07        
Oct 20 02:15 Calm 10 Partly Cloudy SCT030 63 63     100%     30.08        
Oct 20 01:55 Calm 7 Clear CLR 63 63     100%     30.09        
Oct 20 01:35 Calm 7 Partly Cloudy SCT110 63 63     100%     30.1        
Oct 20 01:15 Calm 10 Partly Cloudy SCT100 64 64     100%     30.1        
Oct 20 00:55 Calm 10 Partly Cloudy SCT060 SCT070 SCT100 64 64     100%     30.1        
Oct 20 00:35 Calm 10 Partly Cloudy SCT070 66 66     100%     30.11        
Oct 20 00:15 Calm 10 Partly Cloudy SCT036 SCT070 SCT100 66 66     100%     30.12        
Oct 19 23:55 Calm 10 Mostly Cloudy SCT036 SCT070 BKN100 66 66     100%     30.13        
Oct 19 23:35 Calm 10 Partly Cloudy SCT070 SCT100 67 67     100%     30.13        
Oct 19 23:15 Calm 10 Partly Cloudy SCT070 SCT110 67 67     100%     30.13        
Oct 19 22:55 SE 3 10 Partly Cloudy SCT110 67 67     100%     30.13        
Oct 19 22:35 Calm 10 Clear CLR 67 67     100%     30.14        
Oct 19 22:15 Calm 10 Clear CLR 67 67     100%     30.14        
Oct 19 21:55 Calm 10 Clear CLR 68 68     99%     30.13        
Oct 19 21:35 Calm 10 Clear CLR 68 68     99%     30.14        
Oct 19 21:15 Calm 10 Clear CLR 69 69     99%     30.14        
Oct 19 20:55 SE 3 10 Clear CLR 69 69     99%     30.14        
Oct 19 20:35 Calm 10 Clear CLR 69 69     100%     30.14        
Oct 19 20:15 Calm 10 Clear CLR 69 69     100%     30.14        
Oct 19 19:55 Calm 10 Clear CLR 69 69     99%     30.14        
Oct 19 19:35 Calm 10 Clear CLR 71 67     88%   72 30.14        
Oct 19 19:15 SSE 3 10 Clear CLR 71 67     88%   72 30.14        
Oct 19 18:55 Calm 10 Clear CLR 71 67     87%   72 30.14        
Oct 19 18:35 SSE 3 10 Clear CLR 72 67     86%   72 30.14        
Oct 19 18:15 Calm 10 Clear CLR 73 67     82%   74 30.13        
Oct 19 17:55 S 3 10 Clear CLR 74 67     79%   75 30.13        
Oct 19 17:35 S 5 10 Partly Cloudy SCT032 75 67     76%   76 30.14        
Oct 19 17:15 SSW 6 10 Partly Cloudy SCT034 SCT110 76 67     74%   76 30.14        
Oct 19 16:55 SSW 7 10 Mostly Cloudy BKN034 76 67     71%   77 30.14        
Oct 19 16:35 S 5 10 Mostly Cloudy BKN034 BKN040 77 66     70%   78 30.14        
Oct 19 16:15 S 7 10 Mostly Cloudy BKN037 BKN110 77 66     68%   78 30.15        
Oct 19 15:55 S 5 10 Mostly Cloudy BKN037 BKN110 78 66     68%   79 30.15        
Oct 19 15:35 SW 5 10 Cloudy OVC035 77 66     69%   78 30.15        
Oct 19 15:15 SW 5 10 Cloudy OVC033 77 66     69%   77 30.16        
Oct 19 15:00 SSW 6 10 Cloudy OVC031 79 66     65%   79 30.16        
Oct 19 14:35 SSW 3 10 Mostly Cloudy BKN029 76 65     70%   76 30.18        
Oct 19 14:15 Calm 10 Mostly Cloudy BKN029 BKN120 76 65     69%   76 30.18        
Oct 19 13:55 Calm 10 Mostly Cloudy BKN027 77 65     68%   77 30.2        
Oct 19 13:35 S 3 10 Cloudy OVC027 76 65     70%   76 30.2        
Oct 19 13:15 SSE 5 10 Mostly Cloudy BKN027 BKN110 76 65     69%   76 30.21        
Oct 19 12:55 SE 3 10 Mostly Cloudy BKN025 76 64     66%   76 30.23        
Oct 19 12:35 SSE 3 10 Mostly Cloudy BKN023 73 63     71%   73 30.24        
Oct 19 12:15 S 5 10 Cloudy OVC023 74 63     69%   75 30.25        
Oct 19 11:55 SSE 6 10 Cloudy OVC023 73 62     69%   73 30.26        
Oct 19 11:35 SE 6 10 Cloudy BKN021 OVC028 72 62     71%   72 30.27        
Oct 19 11:15 Calm 10 Cloudy OVC021 71 61     70%   71 30.28        
Oct 19 10:55 ENE 3 10 Cloudy OVC021 71 60     69%   71 30.29        
Oct 19 10:35 ESE 6 10 Mostly Cloudy BKN017 BKN023 70 59     69%     30.29        
Oct 19 10:15 ESE 7 10 Cloudy BKN016 OVC023 68 58     71%     30.29        
Oct 19 09:55 SE 7 10 Cloudy BKN016 OVC021 67 58     72%     30.3        
Oct 19 09:35 ESE 5 10 Cloudy OVC016 67 57     72%     30.3        
Oct 19 09:15 ESE 7 10 Cloudy BKN016 OVC021 65 57     76%     30.3        
Oct 19 08:55 Calm 10 Cloudy OVC018 63 56     78%     30.3        
Oct 19 08:35 Calm 10 Cloudy OVC016 62 57     85%     30.29        
Oct 19 08:15 Calm 10 Cloudy OVC016 61 57     88%     30.29        
Oct 19 07:55 Calm 10 Cloudy OVC016 60 58     94%     30.28        
Oct 19 07:35 Calm 10 Cloudy OVC016 57 57     100%     30.28        
Oct 19 07:15 Calm 10 Cloudy OVC016 56 56     100%     30.28        
Oct 19 06:55 Calm 10 Cloudy OVC016 55 55     100%     30.27        
Oct 19 06:35 Calm 10 Mostly Cloudy BKN018 54 54     100%     30.28        
Oct 19 06:15 Calm 10 Mostly Cloudy BKN014 54 54     100%     30.28        
Oct 19 05:55 Calm 10 Mostly Cloudy BKN016 53 53     100%     30.28        
Oct 19 05:35 Calm 10 Clear CLR 52 52     100%     30.28        
Oct 19 05:15 Calm 10 Clear CLR 52 52     100%     30.27        
Oct 19 04:55 Calm 10 Clear CLR 52 52     100%     30.27        
Oct 19 04:35 Calm 10 Clear CLR 52 52     100%     30.27        
Oct 19 04:15 Calm 10 Clear CLR 52 52     100%     30.27        
Oct 19 03:55 Calm 10 Clear CLR 52 52     100%     30.27        
Oct 19 03:35 Calm 10 Clear   52 52     100%     30.27        
Oct 19 03:15 Calm 10 Clear   53 53     100%     30.28        
Oct 19 02:55 Calm 10 Clear   54 54     100%     30.28        
Oct 19 02:35 Calm 10 Clear CLR 54 54     100%     30.28        
Oct 19 02:15 ESE 3 10 Clear CLR 54 54     100%     30.29        
Oct 19 01:55 Calm 10 Clear CLR 54 54     100%     30.29        
Oct 19 01:35 Calm 10 Clear CLR 54 54     100%     30.29        
Oct 19 01:15 Calm 10 Clear CLR 55 55     100%     30.3        
Oct 19 00:55 Calm 10 Clear CLR 55 55     100%     30.3        
Oct 19 00:35 Calm 10 Clear CLR 54 54     100%     30.3        
Oct 19 00:15 Calm 10 Clear CLR 55 55     100%     30.3        
Oct 18 23:55 Calm 10 Clear CLR 55 55     100%     30.3        
Oct 18 23:35 Calm 10 Clear CLR 55 55     100%     30.3        
Oct 18 23:15 Calm 10 Clear CLR 55 55     100%     30.31        
Oct 18 22:55 Calm 10 Clear CLR 56 56     100%     30.31        
Oct 18 22:35 Calm 10 Clear CLR 55 55     99%     30.31        
Oct 18 22:15 Calm 10 Clear CLR 55 54     97%     30.31        
Oct 18 21:55 Calm 10 Clear CLR 55 54     96%     30.31        
Oct 18 21:35 Calm 10 Clear CLR 55 53     93%     30.31        
Oct 18 21:15 Calm 10 Clear CLR 57 53     87%     30.31        
Oct 18 20:55 Calm 10 Clear CLR 57 53     88%     30.31        
Oct 18 20:35 Calm 10 Clear CLR 58 53     86%     30.32        
Oct 18 20:15 Calm 10 Clear CLR 60 53     79%     30.32        
Oct 18 19:55 Calm 10 Clear CLR 63 52     69%     30.32        
Oct 18 19:35 NE 3 10 Clear CLR 64 52     66%     30.31        
Oct 18 19:15 NE 3 10 Clear CLR 64 52     64%     30.31        
Oct 18 18:55 Calm 10 Clear CLR 66 51     58%     30.3        
Oct 18 18:35 Calm 10 Clear CLR 66 51     58%     30.3        
Oct 18 18:15 Calm 10 Clear CLR 68 52     57%     30.3        
Oct 18 17:55 Calm 10 Clear CLR 69 52     55%     30.3        
Oct 18 17:35 Calm 10 Clear CLR 71 52     52%   70 30.29        
Oct 18 17:15 Calm 10 Clear CLR 72 52     50%   71 30.3        
Oct 18 16:55 Calm 10 Clear CLR 72 52     49%   72 30.3        
Oct 18 16:35 NNW 5 10 Clear CLR 73 52     48%   72 30.29        
Oct 18 16:15 NNW 5 10 Clear CLR 74 52     47%   73 30.29        
Oct 18 15:55 NNW 6 10 Clear CLR 74 53     48%   73 30.29        
Oct 18 15:35 Calm 10 Clear CLR 72 52     49%   71 30.29        
Oct 18 15:15 NE 3 10 Clear CLR 74 51     45%   73 30.29        
Oct 18 14:55 Calm 10 Clear CLR 73 52     48%   72 30.29        
Oct 18 14:35 Calm 10 Clear CLR 71 52     50%   70 30.3        
Oct 18 14:15 NW 3 10 Clear CLR 71 51     51%   70 30.3        
Oct 18 13:55 NNW 7 10 Clear CLR 70 51     51%   69 30.3        
Oct 18 13:35 Calm 10 Clear CLR 72 52     49%   71 30.31        
Oct 18 13:15 N 3 10 Clear CLR 71 51     49%   70 30.32        
Oct 18 12:55 NE 6 10 Clear CLR 71 51     50%   70 30.33        
Oct 18 12:35 ENE 6 10 Clear CLR 71 51     51%   70 30.34        
Oct 18 12:15 N 3 10 Clear CLR 70 50     50%     30.35        
Oct 18 11:55 NE 5 10 Clear CLR 69 50     52%     30.36        
Oct 18 11:35 NE 5 10 Partly Cloudy SCT120 68 50     53%     30.36        
Oct 18 11:15 NE 5 10 Partly Cloudy SCT120 66 50     55%     30.37        
Oct 18 10:55 ENE 6 10 Partly Cloudy SCT090 SCT120 65 49     55%     30.37        
Oct 18 10:35 NE 5 10 Partly Cloudy SCT090 64 48     56%     30.38        
Oct 18 10:15 ENE 5 10 Clear CLR 63 49     59%     30.38        
Oct 18 09:55 ENE 7 10 Clear CLR 62 48     60%     30.38        
Oct 18 09:35 NE 5 10 Partly Cloudy SCT090 60 48     63%     30.37        
Oct 18 09:15 NE 8 10 Mostly Cloudy BKN090 59 48     66%     30.38        
Oct 18 08:55 ENE 7 10 Clear CLR 58 48     69%     30.37        
Oct 18 08:35 NE 7 10 Partly Cloudy SCT120 57 48     72%     30.37        
Oct 18 08:15 NE 6 10 Partly Cloudy SCT120 56 49     76%     30.36        
Oct 18 07:55 ENE 7 10 Partly Cloudy SCT120 55 49     79%     30.35        
Oct 18 07:35 NE 5 10 Partly Cloudy SCT120 54 48     80%     30.34        
Oct 18 07:15 NE 3 10 Mostly Cloudy BKN120 54 48     81%     30.33        
Oct 18 06:55 NE 6 10 Partly Cloudy SCT120 54 49     81%     30.32        
Oct 18 06:35 NE 5 10 Partly Cloudy SCT120 54 49     81%     30.32        
Oct 18 06:15 ENE 6 10 Partly Cloudy SCT120 55 49     81%     30.32        
Oct 18 05:55 NE 6 10 Partly Cloudy SCT120 55 49     80%     30.32        
Oct 18 05:35 NNE 3 10 Mostly Cloudy BKN120 55 49     80%     30.32        
Oct 18 05:15 NE 6 10 Mostly Cloudy BKN120 56 49     79%     30.31        
Oct 18 04:55 NE 3 10 Mostly Cloudy BKN110 55 49     80%     30.31        
Oct 18 04:35 ENE 3 10 Mostly Cloudy BKN110 56 49     79%     30.31        
Oct 18 04:15 ENE 6 10 Mostly Cloudy BKN110 56 49     79%     30.31        
Oct 18 03:55 NE 5 10 Mostly Cloudy BKN110 55 50     81%     30.31        
Oct 18 03:35 Calm 10 Mostly Cloudy BKN110 54 50     85%     30.31        
Oct 18 03:15 SE 3 10 Mostly Cloudy BKN110 55 50     82%     30.32        
Oct 18 02:55 Calm 10 Mostly Cloudy BKN110 57 50     77%     30.32        
Oct 18 02:35 Calm 10 Mostly Cloudy BKN110 58 49     74%     30.32        
Oct 18 02:15 ENE 5 10 Mostly Cloudy BKN120 58 49     73%     30.31        
Oct 18 01:55 E 3 10 Mostly Cloudy BKN110 58 50     72%     30.31        
Oct 18 01:35 ENE 3 10 Cloudy OVC110 59 50     72%     30.31        
Oct 18 01:15 ENE 5 10 Cloudy OVC110 59 50     72%     30.31        
Oct 18 00:55 ENE 6 10 Mostly Cloudy BKN110 59 51     73%     30.31        
Oct 18 00:35 ENE 5 10 Mostly Cloudy BKN110 60 51     72%     30.31        
Oct 18 00:15 NE 6 10 Mostly Cloudy BKN110 61 51     71%     30.31        
Oct 17 23:55 ENE 6 10 Mostly Cloudy SCT060 SCT080 BKN110 61 52     72%     30.31        
Oct 17 23:35 ENE 6 10 Cloudy BKN065 OVC080 62 52     71%     30.31        
Oct 17 23:15 NE 3 10 Cloudy BKN065 OVC075 62 52     70%     30.31        
Oct 17 22:55 NE 3 10 Cloudy SCT065 SCT075 OVC100 61 53     75%     30.31        
Oct 17 22:35 NE 3 10 Cloudy OVC100 62 53     74%     30.3        
Oct 17 22:15 Calm 10 Cloudy OVC100 61 54     77%     30.31        
Oct 17 21:55 Calm 10 Cloudy OVC110 62 54     76%     30.31        
Oct 17 21:35 Calm 10 Clear   62 54     76%     30.3        
Oct 17 21:15 Calm 10 Clear   63 55     75%     30.3        
Oct 17 20:55 Calm 10 Clear   63 55     75%     30.3        
Oct 17 20:35 Calm 10 Cloudy BKN080 OVC085 64 55     74%     30.3        
Oct 17 20:15 Calm 10 Cloudy OVC080 64 56     75%     30.3        
Oct 17 19:55 Calm 10 Cloudy BKN080 OVC120 64 56     75%     30.29        
Oct 17 19:35 Calm 10 Cloudy OVC070 64 57     77%     30.29        
Oct 17 19:15 Calm 10 Cloudy OVC070 65 57     76%     30.28        
Oct 17 18:55 Calm 10 Cloudy OVC070 65 57     76%     30.28        
Oct 17 18:35 Calm 10 Cloudy BKN070 OVC085 65 57     75%     30.27        
Oct 17 18:15 Calm 10 Cloudy BKN080 OVC085 65 57     75%     30.26        
Oct 17 17:55 Calm 10 Cloudy SCT070 OVC080 66 56     71%     30.26        
Oct 17 17:35 Calm 10 Cloudy OVC060 67 56     68%     30.25        
Oct 17 17:15 N 3 10 Cloudy BKN065 OVC075 67 56     68%     30.26        
Oct 17 16:55 Calm 10 Cloudy BKN070 OVC080 68 57     68%     30.25        
Oct 17 16:35 N 5 10 Cloudy BKN070 OVC080 68 57     67%     30.25        
Oct 17 16:15 NNW 6 10 Cloudy SCT060 BKN070 OVC080 69 58     69%     30.25        
Oct 17 15:55 Calm 10 Cloudy SCT060 OVC070 69 60     73%     30.25        
Oct 17 15:35 NNE 3 10 Cloudy OVC070 69 60     74%     30.25        
Oct 17 15:15 Calm 10 Cloudy SCT060 OVC070 68 60     77%     30.24        
Oct 17 14:55 N 3 10 Cloudy OVC065 67 60     78%     30.25        
Oct 17 14:35 NNW 7 10 Cloudy BKN065 OVC080 68 61     78%     30.25        
Oct 17 14:15 N 5 10 Cloudy OVC065 68 62     80%     30.24        
Oct 17 13:55 N 3 10 Cloudy OVC065 68 61     78%     30.24        
Oct 17 13:35 Calm 10 Cloudy OVC065 68 62     80%     30.24        
Oct 17 13:15 NNE 3 10 Cloudy SCT013 OVC065 67 63     85%     30.25        
Oct 17 12:55 NNE 6 10 Cloudy SCT013 OVC065 67 64     92%     30.26        
Oct 17 12:35 Calm 10 Cloudy BKN013 OVC065 67 65     94%     30.27        
Oct 17 12:15 N 5 10 Cloudy BKN013 OVC065 66 65     96%     30.27        
Oct 17 11:55 Calm 10 Cloudy OVC011 66 65     96%     30.28        
Oct 17 11:35 Calm 10 Cloudy OVC011 67 65     96%     30.29        
Oct 17 11:15 NNE 3 10 Cloudy OVC011 66 65     98%     30.28        
Oct 17 10:55 Calm 10 Cloudy OVC009 66 66     100%     30.28        
Oct 17 10:35 Calm 10 Cloudy BKN009 BKN023 OVC048 65 65     100%     30.27        
Oct 17 10:15 Calm 10 Cloudy BKN009 BKN033 OVC060 65 65     100%     30.27        
Oct 17 09:55 NNE 3 10 Cloudy SCT009 OVC060 65 65     100%     30.26        
Oct 17 09:35 Calm 10 Cloudy OVC060 64 64     100%     30.26        
Oct 17 09:15 Calm 10 Cloudy OVC060 63 63     100%     30.25        
Oct 17 08:55 ENE 3 10 Cloudy BKN060 BKN070 OVC080 63 63     100%     30.25        
Oct 17 08:35 NE 7 10 Cloudy SCT060 OVC070 63 63     100%     30.25        
Oct 17 08:15 NE 6 10 Light Drizzle SCT011 BKN060 OVC080 63 63     100%     30.25        
Oct 17 07:55 NE 3 10 Light Rain OVC011 63 63     100%     30.24        
Oct 17 07:35 NE 6 10 Light Rain OVC009 63 63     100%     30.23        
Oct 17 07:15 NE 3 10 Rain OVC009 64 64     100%     30.23        
Oct 17 06:55 NE 5 10 Cloudy SCT009 BKN015 OVC060 64 64     100%     30.23        
Oct 17 06:35 Calm 10 Cloudy SCT009 BKN060 OVC120 64 64     100%     30.23        
Oct 17 06:15 Calm 10 Cloudy SCT060 BKN075 OVC120 64 64     100%     30.22        
Oct 17 05:55 Calm 10 Cloudy SCT009 BKN060 OVC120 64 64     100%     30.2        
Oct 17 05:35 NE 3 10 Light Rain BKN007 BKN050 OVC075 64 64     100%     30.2        
Oct 17 05:15 Calm 10 Cloudy OVC007 64 64     100%     30.2        
Oct 17 04:55 Calm 10 Cloudy OVC007 64 64     100%     30.2        
Oct 17 04:35 Calm 7 Light Rain BKN007 OVC080 64 64     100%     30.19        
Oct 17 04:15 N 3 10 Light Rain OVC007 65 65     100%     30.19        
Oct 17 03:55 NE 6 7 Light Rain OVC005 65 65     100%     30.18        
Oct 17 03:35 Calm 10 Cloudy OVC005 65 65     100%     30.17        
Oct 17 03:15 NNE 3 10 Cloudy OVC005 65 65     100%     30.18        
Oct 17 02:55 Calm 10 Cloudy OVC005 65 65     100%     30.17        
Oct 17 02:35 NNE 3 10 Cloudy BKN005 OVC048 65 65     100%     30.17        
Oct 17 02:15 N 3 10 Cloudy OVC048 65 65     100%     30.17        
Oct 17 01:55 Calm 10 Cloudy OVC046 65 65     100%     30.16        
Oct 17 01:35 Calm 10 Cloudy OVC048 65 65     100%     30.16        
Oct 17 01:15 Calm 10 Mostly Cloudy SCT043 BKN050 BKN120 64 64     100%     30.15        
Oct 17 00:55 Calm 10 Partly Cloudy SCT120 64 64     100%     30.15        
Oct 17 00:35 Calm 10 Mostly Cloudy BKN110 64 64     100%     30.15        
Oct 17 00:15 Calm 10 Mostly Cloudy BKN110 64 64     100%     30.15        
Oct 16 23:55 Calm 10 Mostly Cloudy BKN110 65 65     100%     30.15        
Oct 16 23:35 Calm 10 Mostly Cloudy BKN110 65 65     100%     30.16        
Oct 16 22:55 Calm 10 Mostly Cloudy BKN110 66 66     100%     30.17        
Oct 16 22:35 NE 3 10 Partly Cloudy SCT110 66 66     99%     30.17        
Oct 16 22:15 ENE 3 10 Clear CLR 66 65     97%     30.17        
Oct 16 21:55 Calm 10 Partly Cloudy SCT110 67 65     96%     30.17        
Oct 16 21:35 ENE 5 10 Mostly Cloudy BKN026 BKN110 67 65     94%     30.16        
Oct 16 21:15 ENE 6 10 Cloudy SCT017 OVC024 67 66     95%     30.16        
Oct 16 20:55 NE 6 10 Cloudy SCT009 OVC015 67 66     96%     30.16        
Oct 16 20:35 ENE 6 10 Cloudy BKN007 OVC015 67 66     96%     30.17        
Oct 16 20:15 NNE 6 10 Cloudy OVC007 67 67     100%     30.17        
Oct 16 19:55 NNE 6 10 Cloudy OVC009 67 67     100%     30.17        
Oct 16 19:35 NNE 5 10 Clear   68 66     92%     30.17        
Oct 16 19:15 NE 5 10 Clear   69 66     90%     30.16        
Oct 16 18:55 N 7 10 Clear   70 67     89%     30.15        
Oct 16 18:35 N 3 10 Cloudy BKN021 OVC100 71 67     89%   72 30.13        
Oct 16 18:15 Calm 10 Cloudy OVC100 71 67     87%   72 30.12        
Oct 16 17:55 Calm 10 Cloudy OVC090 72 68     87%   73 30.12        
Oct 16 17:35 NNE 5 10 Mostly Cloudy BKN100 73 68     85%   74 30.12        
Oct 16 17:15 N 5 10 Mostly Cloudy BKN110 74 69     84%   75 30.11        
Oct 16 16:55 N 5 10 Cloudy OVC100 75 69     82%   76 30.11        
Oct 16 16:35 NNW 3 10 Mostly Cloudy BKN095 76 70     81%   77 30.1        
Oct 16 16:15 NNE 3 10 Partly Cloudy SCT110 76 70     80%   78 30.09        
Oct 16 15:55 NNE 5 10 Partly Cloudy SCT110 77 70     80%   78 30.1        
Oct 16 15:35 N 3 10 Mostly Cloudy BKN110 78 70     78%   79 30.1        
Oct 16 15:15 WNW 3 10 Cloudy OVC110 77 70     79%   78 30.1        
Oct 16 14:55 NW 5 10 Cloudy SCT023 OVC110 77 70     79%   78 30.1        
Oct 16 14:35 Calm 10 Cloudy OVC023 77 70     78%   78 30.11        
Oct 16 14:15 N 3 10 Cloudy OVC019 77 70     78%   78 30.11        
Oct 16 13:55 NNW 3 10 Cloudy OVC017 76 69     80%   77 30.12        
Oct 16 13:35 Calm 10 Cloudy OVC017 75 69     81%   76 30.12        
Oct 16 13:15 Calm 10 Cloudy OVC017 74 68     82%   75 30.13        
May 15 02:15 Calm 10 Clear CLR 70 67     91%     29.97        
May 14 12:35 NNW 3 10 Mostly Cloudy SCT060 BKN070 88 65     47%   90 30.04        
May 13 06:15 Calm 10 Clear CLR 59 59     100%     30.13        
May 12 16:15 W 3 10 Clear CLR 89 59     36%   88 30.1        
May 12 14:35 W 8 10 Clear CLR 89 60     37%   89 30.12        
May 12 12:15 N 6 10 Clear CLR 87 59     39%   86 30.16        
May 12 01:35 Calm 7 Clear CLR 61 61     100%     30.1        
May 11 23:15 Calm 10 Clear CLR 64 64     100%     30.11        
May 11 21:55 Calm 10 Clear CLR 67 67     98%     30.11        
May 11 21:15 Calm 10 Clear CLR 69 66     89%     30.1        
May 11 17:35 WSW 6 10 Clear CLR 87 60     41%   87 30.06        
May 11 15:35 SW 6 10 Clear CLR 89 60     38%   88 30.08        
Notice The following observation data may not be complete
May 11 12:35   10 Clear CLR          %              
Jun 12 04:15 Calm 10 Clear CLR 72 72     100%   74 30.14        
Jun 12 03:55 Calm 10 Clear CLR 73 73     100%   75 30.14        
Jun 11 21:55 Calm 10 Clear   79 71     79%   80 30.15        
Jun 11 20:55 SSE 5 10 Clear   80 73     79%   84 30.12        
Jun 11 17:15 S 6 10 Partly Cloudy SCT045 90 72     54%   98 30.09        
Jun 11 15:15 SE 8 10 Partly Cloudy SCT045 89 71     56%   96 30.12        
Jun 11 09:55 S 5 10 Mostly Cloudy BKN020 BKN085 83 74     74%   89 30.17        
Jun 11 09:15 SE 7 10 Partly Cloudy SCT016 SCT110 81 74     77%   87 30.17        
Notice The following observation data may not be complete
Jun 11 02:35   10 Clear CLR          %              
Jun 11 02:15 Calm 10 Clear   66 66     100%     30.09        
Jun 11 00:15 Calm 10 Clear CLR 68 68     100%     30.11        
Jun 10 18:35 SSE 3 10 Clear   83 65     54%   85 30.05        
Jun 10 16:35 SE 5 10 Clear CLR 88 62     42%   88 30.05        
Jun 10 13:35 SSE 8 10 Partly Cloudy SCT065 SCT075 87 64     47%   89 30.09        
Jun 10 12:55 SSE 3 10 Mostly Cloudy SCT060 BKN075 87 63     44%   88 30.1        
Jun 10 11:35 S 5 10 Partly Cloudy SCT065 87 61     42%   87 30.11        
Jun 10 09:15 Calm 10 Partly Cloudy SCT080 SCT100 80 69     68%   83 30.1        
Jun 10 05:15 Calm 10 Mostly Cloudy BKN080 BKN095 63 63     100%     30.03        
Jun 10 03:15 Calm 10 Partly Cloudy SCT060 SCT070 64 64     100%     30.01        
Jun 10 02:35 Calm 10 Partly Cloudy SCT060 64 64     100%     30.01        
Jun 09 20:35 Calm 10 Clear CLR 72 67     86%   73 29.96        
Jun 09 05:35 Calm 10 Partly Cloudy SCT060 60 60     100%     29.95        
Jun 08 18:35 Calm 10 Partly Cloudy SCT110 79 62     56%   80 29.86        
Jun 08 02:15 Calm 10 Clear CLR 61 61     100%     29.87        
Jun 08 01:55 Calm 10 Clear CLR 62 61     97%     29.87        
Jun 07 17:35 NNE 5 10 Clear CLR 82 61     49%   83 29.82        
Jun 07 11:35 NE 8 10 Clear   79 68     69%   82 29.82        
Jun 07 09:35 NE 7 10 Clear CLR 74 65     72%   75 29.82        
Jun 06 10:55 Calm 10 Light Drizzle SCT005 BKN049 OVC055 72 72     100%   74 29.82   0    
Notice The following observation data may not be complete
Jun 06 05:55   10 Cloudy OVC005          %              
Jun 06 04:55 Calm 10 Cloudy BKN005 BKN055 OVC070 72 72     100%   74 29.8        
Jun 06 03:35 Calm 10 Light Rain SCT037 SCT048 SCT070 72 72     100%   74 29.8        
Jun 06 01:55 Calm 10 Cloudy SCT035 BKN042 OVC065 72 72     100%   74 29.81        
Jun 05 15:55 ENE 5 7 Rain SCT005 BKN048 OVC100 74 74     100%   76 29.81   0 1